DW9314 Weather Reports


time (UTC)temp
F
wind
direction
speed
knots
gust
knots
rain 1hr
in
rain 24hr
in
rain mn
in
humidity
%
barometer
mb
20211017150027 59 19 0.9 5.2 0.00 0.00 0.00 19 1008.9
20211017144517 57 265 1.7 11.3 0.00 0.00 0.00 3 1009.1
20211017143021 56 5 0.9 10.4 0.00 0.00 0.00 100 1009.2
20211017141503 55 298 3.5 12.2 0.00 0.00 0.00 100 1009.3
20211017140103 54 18 2.6 11.3 0.00 0.00 0.00 100 1009.2
20211017134627 53 282 0.9 5.2 0.00 0.00 0.00 100 1009.1
20211017133050 52 229 0.9 7.0 0.00 0.00 0.00 100 1009.2
20211017131540 51 273 1.7 11.3 0.00 0.00 0.00 100 1009.1
20211017130031 51 261 1.7 8.7 0.00 0.00 0.00 100 1009.1
20211017124532 50 26 0.0 6.1 0.00 0.00 0.00 100 1008.9
20211017123045 50 292 0.9 7.8 0.00 0.00 0.00 100 1008.8
20211017121549 0 0.0 0.0 0.00 0.00 0.00 1008.6
20211017114659 0 0.0 0.0 0.00 0.00 0.00 1008.2
20211017113130 0 0.0 0.0 0.00 0.00 0.00 1008.1
20211017111550 0 0.0 0.0 0.00 0.00 0.00 1008.1
20211017110050 0 0.0 0.0 0.00 0.00 0.00 1008.0
20211017104624 0 0.0 0.0 0.00 0.00 0.00 1008.0
20211017103117 0 0.0 0.0 0.00 0.00 0.00 1008.1
20211017101531 0 0.0 0.0 0.00 0.00 0.00 1007.9
20211017100148 50 280 0.0 7.0 0.00 0.00 0.00 100 1007.7
20211017094505 50 304 0.0 7.8 0.00 0.00 0.00 100 1007.6
20211017091547 50 32 0.9 5.2 0.00 0.00 0.00 100 1007.4
20211017090045 50 355 0.9 5.2 0.00 0.00 0.00 100 1007.3
20211017084531 50 235 0.9 3.5 0.00 0.00 0.00 100 1007.2
20211017083029 50 311 0.9 7.0 0.00 0.00 0.00 100 1007.1
20211017081513 50 256 1.7 4.3 0.00 0.00 0.00 100 1007.1
20211017080013 50 169 0.9 8.7 0.00 0.00 0.00 100 1007.0
20211017074503 50 27 0.9 4.3 0.00 0.00 0.00 100 1007.0
20211017073131 51 252 1.7 7.8 0.00 0.00 0.00 100 1006.8
20211017071604 51 34 0.0 5.2 0.00 0.00 0.00 100 1006.7
20211017070113 51 28 0.9 8.7 0.00 0.00 0.00 100 1006.7
20211017064602 51 248 2.6 10.4 0.00 0.00 0.00 100 1006.6
20211017063028 51 42 2.6 7.0 0.00 0.00 0.00 100 1006.6
20211017061524 52 286 0.9 7.0 0.00 0.00 0.00 100 1006.8
20211017060130 52 44 1.7 4.3 0.00 0.00 0.00 100 1006.8
20211017054614 53 28 0.9 7.0 0.00 0.00 0.00 100 1006.8
20211017053110 54 264 0.0 3.5 0.00 0.00 0.00 100 1007.0
20211017051614 55 355 0.9 5.2 0.00 0.00 0.00 100 1007.0
20211017050048 55 261 3.5 7.8 0.00 0.00 0.00 100 1006.6
20211017044555 55 54 2.6 8.7 0.00 0.00 0.00 100 1006.1
20211017043107 55 94 1.7 4.3 0.00 0.00 0.00 100 1006.2
20211017041540 55 350 0.0 3.5 0.00 0.00 0.00 100 1006.5
20211017040016 56 300 0.0 2.6 0.00 0.00 0.00 100 1006.3
20211017034623 56 321 0.9 5.2 0.00 0.00 0.00 100 1006.3
20211017033140 56 42 0.0 2.6 0.00 0.00 0.00 100 1006.0
20211017031600 56 46 0.0 4.3 0.00 0.00 0.00 100 1006.5
20211017030040 56 257 1.7 5.2 0.00 0.00 0.00 100 1006.6
20211017023134 57 330 0.0 7.0 0.00 0.00 0.00 100 1006.7
20211017021604 57 284 0.9 6.1 0.00 0.00 0.00 100 1006.5
20211017020043 57 297 0.9 7.0 0.00 0.00 0.00 100 1006.6
20211017014533 57 281 1.7 12.2 0.00 0.00 0.00 100 1007.0
20211017013016 59 300 2.6 8.7 0.00 0.00 0.00 100 1006.6
20211017011605 60 25 2.6 10.4 0.00 0.00 0.00 100 1005.8
20211017010110 62 155 0.9 7.0 0.00 0.00 0.00 100 1005.4
20211017004529 62 336 0.0 4.3 0.00 0.00 0.00 100 1005.2
20211017003024 62 24 1.7 7.0 0.00 0.00 0.00 100 1004.7
20211017001815 62 14 0.0 4.3 0.00 0.00 0.00 100 1004.7
20211016234610 62 53 0.0 5.2 0.00 0.00 0.00 100 1004.6
20211016233047 63 300 1.7 5.2 0.00 0.00 0.00 100 1004.5
20211016231550 63 18 0.0 7.0 0.00 0.00 0.00 100 1004.3
20211016230047 64 51 0.9 6.1 0.00 0.00 0.00 100 1003.8
20211016224553 65 14 4.3 10.4 0.00 0.00 0.00 100 1003.9
20211016223034 66 180 0.9 5.2 0.00 0.00 0.00 100 1003.5
20211016221508 66 206 0.9 5.2 0.00 0.00 0.00 100 1003.0
20211016220003 66 183 1.7 5.2 0.00 0.00 0.00 100 1002.3
20211016214626 66 177 0.9 7.0 0.00 0.00 0.00 100 1002.3
20211016213109 67 166 0.9 6.1 0.00 0.00 0.00 100 1002.6
20211016211521 68 182 2.6 8.7 0.00 0.00 0.00 100 1002.3
20211016210015 69 176 1.7 4.3 0.00 0.00 0.00 100 1002.5
20211016204623 70 196 1.7 7.0 0.00 0.00 0.00 100 1002.4
20211016203103 72 116 0.0 5.2 0.00 0.00 0.00 100 1002.7
20211016201527 72 76 1.7 9.6 0.00 0.00 0.00 100 1002.8
20211016200058 74 140 1.7 10.4 0.00 0.00 0.00 100 1002.8
20211016194633 76 139 2.6 7.8 0.00 0.00 0.00 100 1002.9
20211016193055 77 192 0.9 5.2 0.00 0.00 0.00 100 1003.0
20211016191607 78 168 0.9 5.2 0.00 0.00 0.00 100 1003.4
20211016190055 77 182 0.9 4.3 0.00 0.00 0.00 100 1003.6
20211016184508 76 175 0.9 4.3 0.00 0.00 0.00 100 1003.9
20211016183003 75 95 1.7 7.0 0.00 0.00 0.00 100 1003.9
20211016181721 75 181 1.7 7.0 0.00 0.00 0.00 100 1004.2
20211016180135 75 142 2.6 6.1 0.00 0.00 0.00 100 1004.3
20211016174615 74 196 0.9 4.3 0.00 0.00 0.00 100 1004.5
20211016173021 73 70 1.7 5.2 0.00 0.00 0.00 100 1004.8
20211016171520 73 157 0.0 4.3 0.00 0.00 0.00 100 1005.0
20211016170105 73 163 0.9 8.7 0.00 0.00 0.00 100 1005.4
20211016164615 74 173 0.9 4.3 0.00 0.00 0.00 100 1005.8
20211016163029 75 123 0.9 5.2 0.00 0.00 0.00 100 1006.1
20211016161537 75 164 1.7 6.1 0.00 0.00 0.00 100 1006.3
20211016160123 74 229 2.6 6.1 0.00 0.00 0.00 100 1007.0
20211016154807 72 198 1.7 9.6 0.00 0.00 0.00 100 1007.2
20211016153053 69 186 0.9 5.2 0.00 0.00 0.00 100 1007.3
20211016151530 70 182 1.7 4.3 0.00 0.00 0.00 100 1007.6